SCP
0 0 0 1 1 1 1 1 1 0 0 0 0 0 0 0 0 0 0 1 1 1 1 1 1 2 2 1 1 1 1 0 0 0 0 0 0 0 0 0 0 0 0
0 0 0 1 1 1 1 1 1 1 0 0 0 0 0 0 0 0 0 1 1 1 1 1 1 1 2 1 1 1 1 0 0 0 0 0 0 0 0 0 0 0 0
0 0 0 0 1 1 1 1 1 1 1 1 0 0 0 0 0 0 0 1 1 1 1 1 1 1 2 2 1 1 0 0 0 0 0 0 0 0 0 0 0 0 0
0 0 0 0 0 1 1 1 1 1 1 1 1 0 0 0 0 0 0 0 1 1 1 1 1 1 2 2 1 1 0 0 0 0 0 0 0 0 0 0 0 0 0
0 0 0 0 0 1 1 2 2 1 1 1 1 0 0 0 0 0 0 0 0 1 1 1 1 1 1 1 1 1 0 0 0 0 0 0 0 0 0 0 0 0 0
0 0 0 0 0 1 1 2 2 2 1 1 1 1 0 0 0 0 0 0 0 0 1 1 1 1 1 1 1 0 0 0 0 0 0 0 0 0 0 0 0 0 0
0 0 0 0 0 0 1 1 2 2 1 1 1 1 0 0 0 0 0 0 0 0 0 1 1 1 0 0 0 0 0 0 0 0 0 0 0 0 0 0 0 0 0
0 0 0 0 0 0 0 1 1 1 1 1 1 1 1 0 0 0 0 0 0 0 0 0 0 0 0 0 0 0 0 0 0 0 0 0 0 0 0 0 0 0 0
0 0 0 0 0 0 0 0 1 1 1 1 1 1 1 1 0 0 0 0 0 0 0 0 0 0 0 0 0 0 0 0 0 0 0 0 0 0 0 0 0 0 0
0 0 0 0 0 0 0 0 0 0 1 1 1 1 1 1 0 0 0 0 0 0 0 0 0 0 0 0 0 0 0 0 0 0 0 0 0 0 0 0 0 0 0
0 0 0 0 0 0 0 0 0 0 0 0 1 1 1 1 0 0 0 0 0 0 0 0 0 0 0 0 0 0 0 0 0 0 0 0 0 0 0 0 0 0 0
0 0 0 0 0 0 0 0 0 0 0 0 0 0 1 1 0 0 0 0 0 0 0 0 0 0 0 0 0 0 0 0 0 0 0 0 0 0 0 0 0 0 0
0 0 0 0 0 0 0 0 0 0 0 0 0 0 0 0 0 0 0 0 0 0 0 0 0 0 0 0 0 0 0 0 0 0 0 0 0 0 0 0 0 0 0
0 0 0 0 0 0 0 0 0 0 0 0 0 0 0 0 0 0 0 0 0 0 0 0 0 0 0 0 0 0 0 0 0 0 0 0 0 0 0 0 0 0 0
0 0 0 0 0 0 0 0 0 0 0 0 0 0 0 0 0 0 0 0 0 0 0 0 0 0 0 0 0 0 0 0 0 0 0 0 0 0 0 0 0 0 0
0 0 0 0 0 0 0 0 0 0 0 0 0 0 0 0 0 0 0 0 0 0 0 0 0 0 0 0 0 0 0 0 0 0 0 0 0 0 0 0 0 0 0
0 0 0 0 0 0 0 0 0 0 0 0 0 0 0 0 0 0 0 0 0 0 0 0 0 0 0 0 0 0 0 0 0 0 0 0 0 0 0 0 0 0 0
0 0 0 0 0 0 0 0 0 0 0 0 0 0 0 0 0 0 0 0 0 0 0 0 0 0 0 0 0 0 0 0 0 0 0 0 0 0 0 0 0 0 0
0 0 0 0 0 0 0 0 0 0 0 0 0 0 0 0 0 0 0 0 0 0 0 0 0 0 0 0 0 0 0 0 0 0 0 0 0 0 0 0 0 0 0
0 0 0 0 0 0 0 0 0 0 0 0 0 0 0 0 0 0 0 0 0 0 0 0 0 0 0 0 0 0 0 0 0 0 0 0 0 0 0 0 0 0 0
0 0 0 0 0 0 0 0 0 0 0 0 0 0 0 0 0 0 0 0 0 0 0 0 0 0 0 0 0 0 0 0 0 0 0 0 0 0 0 0 0 0 0
0 0 0 0 0 0 0 0 0 0 0 0 0 0 0 0 0 0 0 0 0 0 0 0 0 0 0 0 0 0 0 0 0 0 0 0 0 0 0 0 0 0 0
0 0 0 0 0 0 0 0 0 0 0 0 0 0 0 0 0 0 0 0 0 0 0 0 0 0 0 0 0 0 0 0 0 0 0 0 0 0 0 0 0 0 0
0 0 0 0 0 0 0 0 0 0 0 0 0 0 0 0 0 0 0 0 0 0 0 0 0 0 0 0 0 0 0 0 0 0 0 0 0 0 0 0 0 0 0
0 0 0 0 0 0 0 0 0 0 0 0 0 0 0 0 0 0 0 0 0 0 0 0 0 0 0 0 0 0 0 0 0 0 0 0 0 0 0 0 0 0 0
0 0 0 0 0 0 0 0 0 0 0 0 0 0 0 0 0 0 0 0 0 0 0 0 0 0 0 0 0 0 0 0 0 0 0 0 0 0 0 0 0 0 0
Wind_Speed
4 2 3 3 3 3 3 3 2 2 2 2 1 1 1 0 1 1 1 1 1 2 1 1 1 1 1 1 2 2 2 1 1 2 2 2 2 3 3 3 3 4 4
2 2 3 3 4 4 4 3 3 2 2 2 1 1 1 1 0 0 1 1 1 1 1 1 1 1 1 1 1 2 1 1 1 2 1 1 1 1 2 2 2 3 2
5 4 3 3 3 4 4 3 3 3 2 2 2 2 1 1 0 1 1 1 0 0 0 1 1 1 1 2 2 2 2 2 1 1 2 2 2 1 1 1 2 2 2
4 3 3 3 3 4 3 3 3 3 2 2 2 3 2 2 2 1 1 1 0 0 0 0 1 1 1 1 2 2 2 3 3 1 1 1 2 2 1 1 1 1 1
3 3 3 4 3 3 3 2 2 2 2 3 3 3 2 1 1 0 0 1 1 0 0 0 1 1 1 1 1 1 2 2 3 3 2 1 1 1 2 2 1 1 1
1 1 1 1 1 1 2 2 2 2 2 2 2 3 3 2 1 1 1 1 1 1 1 0 1 1 1 2 2 2 2 3 3 3 2 3 2 2 2 2 2 2 2
1 0 0 0 0 1 1 2 2 2 2 2 2 2 3 3 3 3 2 2 1 2 2 1 1 1 2 2 2 2 2 2 3 4 3 2 2 2 2 2 1 1 2
0 0 0 0 0 1 1 1 2 2 2 2 2 2 2 2 2 3 2 3 2 2 2 2 2 2 2 2 2 2 2 2 3 3 3 2 2 2 2 2 2 1 2
1 0 0 1 1 0 0 1 2 2 2 3 2 2 2 2 2 2 2 2 2 2 2 3 3 2 2 2 2 2 2 2 3 3 3 3 2 2 2 2 3 3 3
1 1 1 1 1 0 1 0 1 2 2 2 2 2 2 2 2 2 2 2 2 2 3 3 3 3 3 3 2 2 3 3 3 3 3 4 3 3 3 3 2 2 3
1 1 1 1 1 0 0 1 1 1 1 1 1 1 1 1 1 2 2 2 2 2 3 3 3 4 3 3 3 3 3 4 4 4 4 4 4 3 3 3 3 3 3
1 1 1 1 1 1 1 1 1 1 1 1 1 1 1 1 1 2 2 2 2 3 3 3 3 4 4 4 4 4 4 4 5 5 5 5 3 4 4 4 4 4 4
2 1 1 1 2 2 2 2 2 2 1 1 1 1 1 1 2 2 2 2 2 2 2 2 3 3 3 4 4 5 5 5 5 5 6 5 5 5 4 5 5 4 4
3 2 2 2 2 2 2 2 2 2 1 1 1 2 2 2 3 2 2 2 2 2 2 3 3 3 3 4 4 4 5 5 5 5 5 5 6 6 6 5 6 5 4
4 3 3 3 3 3 2 2 2 2 1 1 2 3 3 2 2 2 2 2 2 2 2 2 2 3 3 3 4 4 4 4 4 4 5 5 7 8 6 5 5 5 5
5 4 3 3 3 3 3 3 3 2 2 2 3 2 2 2 2 2 2 2 2 2 2 2 2 3 3 5 6 5 4 4 4 5 4 5 6 7 8 8 8 8 6
5 5 4 4 3 3 3 3 3 2 2 2 2 2 2 2 2 2 2 2 3 2 2 2 3 4 5 7 7 7 4 4 4 5 4 4 4 6 4 6 9 9 10
5 5 4 3 3 2 2 2 1 1 2 2 2 2 2 2 2 2 2 3 2 2 3 3 3 4 5 7 8 8 5 4 5 5 5 5 5 5 5 5 5 6 6
4 4 3 3 3 2 1 1 1 1 2 2 2 2 2 2 2 3 3 3 3 3 3 3 3 4 5 7 8 7 3 3 4 5 5 5 6 9 9 6 5 6 5
2 2 2 1 2 2 1 0 1 1 3 3 3 2 2 3 3 4 3 3 3 3 3 3 3 4 4 7 8 7 3 4 4 3 4 7 7 9 9 6 5 6 5
2 1 1 1 2 1 0 1 1 3 3 2 2 2 2 3 3 3 3 2 3 2 2 3 3 4 5 6 7 7 3 3 3 3 3 4 8 9 9 7 5 7 5
2 2 1 2 2 1 0 1 2 3 2 1 2 2 2 2 2 2 2 2 2 2 2 2 3 3 4 5 6 8 7 5 4 4 3 4 9 9 8 6 7 8 5
2 2 1 2 2 1 0 1 3 2 1 1 2 2 2 2 2 2 2 2 2 2 2 2 3 3 2 4 7 8 8 8 4 3 6 7 8 7 5 6 7 5 3
2 2 2 2 3 2 2 2 2 1 1 1 2 2 2 2 2 2 2 2 2 3 3 3 3 3 3 3 3 4 4 6 5 3 5 6 5 4 4 4 3 3 3
2 1 1 2 3 3 3 3 2 1 1 2 2 2 2 2 2 2 3 3 3 4 4 3 3 3 3 5 6 4 3 3 3 2 1 1 1 2 2 2 2 2 2
2 2 2 2 3 3 3 4 3 2 2 2 2 2 2 2 2 2 3 5 5 7 8 7 6 5 7 8 8 8 8 8 6 2 1 2 2 2 2 2 2 2 3
Wind_Direction
240 191 172 160 150 148 145 149 138 130 118 113 129 150 165 23 39 62 59 60 51 50 71 85 103 98 116 123 113 106 97 86 77 79 43 25 38 48 36 34 42 38 31
225 202 183 169 171 172 168 163 162 156 151 147 161 164 156 152 63 41 62 53 68 62 76 109 122 121 128 124 129 119 123 96 87 109 108 40 358 13 27 31 45 34 23
213 210 202 195 184 185 185 179 175 166 158 138 116 97 85 83 48 348 339 351 56 93 60 133 140 146 156 169 178 169 153 161 162 104 139 153 205 274 336 28 36 21 26
206 206 203 198 193 197 182 173 169 163 160 150 146 150 168 189 217 237 272 302 277 59 29 121 143 160 166 176 201 185 178 165 175 176 71 115 149 156 220 298 11 1 356
201 200 205 206 197 179 165 169 162 158 156 165 170 172 188 207 199 198 260 294 289 288 333 185 170 182 191 195 206 203 194 187 179 171 164 125 77 114 159 212 259 308 290
219 218 201 152 156 134 137 147 157 166 162 169 180 185 193 191 174 214 230 266 284 261 253 261 207 205 202 202 212 207 204 207 191 176 172 170 170 177 168 189 226 255 270
213 212 49 68 166 151 155 159 166 180 177 179 192 202 203 194 200 211 218 228 257 261 254 253 244 235 222 211 207 207 212 216 210 195 191 189 187 170 170 165 200 253 279
222 221 16 340 268 198 178 184 190 198 194 196 213 214 216 209 214 217 217 222 234 247 245 243 246 240 233 220 208 209 221 218 223 213 195 193 194 184 180 171 170 215 264
267 276 349 342 324 261 222 215 215 216 211 212 216 216 217 226 231 226 223 228 239 250 242 234 238 242 232 223 215 216 224 223 227 220 206 202 198 198 197 185 183 182 215
316 284 266 277 291 295 296 256 237 239 231 217 221 226 225 233 237 222 225 233 242 246 241 238 236 238 234 224 220 230 220 220 226 214 205 209 198 197 200 201 209 205 205
260 259 262 266 277 1 4 295 283 302 297 264 242 241 243 239 243 237 234 233 241 243 241 235 234 235 233 228 222 227 227 225 233 219 210 215 203 204 204 203 209 217 210
258 262 265 280 272 269 269 254 260 261 274 284 271 255 257 248 250 257 247 236 240 244 245 240 237 236 234 233 229 227 229 227 230 222 215 218 211 216 212 208 212 215 214
279 283 278 265 260 258 258 257 254 257 275 291 309 303 282 259 249 260 258 242 239 248 251 243 239 240 237 237 240 230 226 227 232 224 217 216 210 217 217 214 215 217 221
273 278 273 269 269 264 257 256 263 259 259 252 253 276 270 261 260 262 267 249 237 237 242 244 242 242 240 238 243 246 238 232 236 230 221 216 215 217 213 215 216 216 218
274 273 271 272 273 271 264 255 253 249 233 229 244 257 271 270 268 270 275 263 245 240 240 242 248 251 245 237 236 241 245 241 244 237 228 226 231 234 227 222 213 211 215
265 271 275 276 271 265 263 264 255 250 231 229 247 263 270 277 262 258 268 271 258 249 240 239 241 249 252 260 257 250 242 243 248 247 242 240 240 243 246 250 243 232 222
263 266 267 264 268 265 260 256 254 249 232 239 249 254 256 269 266 261 262 266 258 248 247 244 240 250 261 267 264 261 252 236 245 246 239 244 247 246 238 249 254 252 250
269 271 274 278 279 270 265 258 243 222 230 246 256 261 261 270 278 260 255 265 259 242 246 250 245 253 266 273 267 267 255 238 244 242 232 234 238 241 235 233 241 246 249
266 269 267 269 278 281 268 238 241 235 242 253 259 260 254 260 268 261 255 258 261 253 249 250 245 250 267 275 273 270 254 249 249 247 243 240 236 244 247 234 237 250 257
298 292 296 300 298 297 275 209 254 249 254 260 264 265 253 249 258 264 264 261 256 255 259 268 258 254 260 273 275 268 250 256 256 251 248 251 252 250 250 232 225 238 246
312 310 310 314 301 303 304 266 272 262 267 277 280 275 263 258 259 267 267 265 266 267 262 270 272 261 265 277 277 271 256 247 250 251 250 250 259 258 254 251 237 246 251
334 341 348 333 332 347 121 281 281 278 281 281 282 281 277 271 270 259 268 260 253 257 258 265 279 273 274 278 273 273 274 269 247 248 249 254 261 260 259 258 259 262 257
333 341 351 341 340 342 234 262 285 294 298 304 293 292 290 281 274 254 256 254 240 242 262 262 272 278 271 273 279 276 279 284 275 264 269 270 267 268 258 262 268 262 236
336 342 359 350 333 335 324 284 297 297 280 283 287 289 286 285 280 270 258 251 246 243 254 261 268 277 272 264 264 262 269 282 281 274 269 274 276 275 273 265 257 250 242
331 344 338 318 313 323 321 314 314 307 283 279 282 286 278 272 269 265 257 259 247 242 252 248 251 258 264 271 278 275 262 254 257 268 241 239 244 250 259 256 249 244 247
332 335 331 320 318 324 321 321 320 302 283 290 294 288 283 280 277 278 288 282 282 283 277 275 273 266 272 284 286 287 289 288 286 273 209 230 240 247 250 258 263 255 245